Location: *
(46.1866°S, 178.5290°W)
Time: 19:57:14
(UTC+00:00)

CZ-4B R/B - Pass Details

Date: 19 May 2021
Orbit: 488 x 648 km, 97.9° (Epoch: 12 June)

Event Time Altitude Azimuth Distance (km) Brightness Sun altitude
Rises 05:22:04 0° 165° (SSE) 2,975 6.2 -9.4°
Reaches altitude 10° 05:24:21 10° 162° (SSE) 2,041 5.4 -9.8°
Maximum altitude 05:28:48 70° 79° (ENE) 663 3.0 -10.5°
Drops below altitude 10° 05:32:59 10° 354° (N) 1,925 5.9 -11.2°
Sets 05:35:05 0° 351° (N) 2,791 6.8 -11.6°
